GW6303 Weather Reports


Display with metric or nautical units.
time (UTC)temp
F
wind
direction
speed
MPH
gust
MPH
rain 1hr
in
rain 24hr
in
rain mn
in
humidity
%
barometer
mb
20260504185502 71 193 0.0 4.0 0.00 0.00 0.00 38 1012.4
20260504185002 71 216 1.0 4.0 0.00 0.00 0.00 38 1012.3
20260504184502 71 170 0.0 5.0 0.00 0.00 0.00 39 1012.4
20260504184101 71 181 1.0 5.0 0.00 0.00 0.00 38 1012.4
20260504183601 71 193 0.0 4.0 0.00 0.00 0.00 40 1012.5
20260504183059 71 188 0.0 5.0 0.00 0.00 0.00 39 1012.5
20260504182601 71 191 0.0 4.0 0.00 0.00 0.00 39 1012.5
20260504182057 71 236 0.0 4.0 0.00 0.00 0.00 38 1012.6
20260504181602 71 205 0.0 4.0 0.00 0.00 0.00 38 1012.8
20260504181056 70 206 0.0 6.0 0.00 0.00 0.00 39 1012.7
20260504180553 70 113 1.0 6.0 0.00 0.00 0.00 38 1013.0
20260504180054 70 206 0.0 4.0 0.00 0.00 0.00 40 1013.0
20260504175553 70 131 0.0 4.0 0.00 0.00 0.00 41 1013.3
20260504175053 70 154 0.0 4.0 0.00 0.00 0.00 39 1013.2
20260504174556 70 204 0.0 6.0 0.00 0.00 0.00 39 1013.2
20260504174053 71 207 1.0 7.0 0.00 0.00 0.00 38 1013.4
20260504173552 71 54 1.0 7.0 0.00 0.00 0.00 38 1013.3
20260504173050 71 131 1.0 5.0 0.00 0.00 0.00 39 1013.5
20260504172549 71 179 0.0 3.0 0.00 0.00 0.00 37 1013.5
20260504172049 71 233 0.0 2.0 0.00 0.00 0.00 38 1013.6
20260504171549 71 180 0.0 4.0 0.00 0.00 0.00 39 1013.7
20260504171048 71 193 0.0 5.0 0.00 0.00 0.00 39 1013.5
20260504170547 71 208 1.0 5.0 0.00 0.00 0.00 38 1013.6
20260504151024 67 250 0.0 5.0 0.00 0.00 0.00 44 1015.0
20260504150523 67 220 0.0 4.0 0.00 0.00 0.00 44 1015.1
20260504141017 62 60 0.0 4.0 0.00 0.00 0.00 56 1015.3
20260504140508 62 236 0.0 3.0 0.00 0.00 0.00 58 1015.2
20260504130553 57 231 0.0 3.0 0.00 0.00 0.00 65 1015.6
20260504110523 43 204 0.0 0.0 0.00 0.00 0.00 78 1016.2
20260504100520 40 206 0.0 0.0 0.00 0.00 0.00 76 1016.1
20260504081517 41 194 0.0 0.0 0.00 0.00 0.00 72 1016.0
20260504081009 42 194 0.0 0.0 0.00 0.00 0.00 72 1016.0
20260504080514 42 194 0.0 0.0 0.00 0.00 0.00 71 1016.0
20260504050552 44 195 0.0 0.0 0.00 0.00 0.00 66 1015.9
20260504045555 44 195 0.0 0.0 0.00 0.00 0.00 66 1015.9
20260504045050 45 195 0.0 0.0 0.00 0.00 0.00 66 1015.9
20260504044552 45 195 0.0 0.0 0.00 0.00 0.00 66 1015.9
20260504044049 44 195 0.0 0.0 0.00 0.00 0.00 66 1015.8
20260504043549 44 195 0.0 0.0 0.00 0.00 0.00 66 1015.9
20260504043109 44 195 0.0 0.0 0.00 0.00 0.00 66 1015.8
20260504042547 44 195 0.0 0.0 0.00 0.00 0.00 66 1015.6
20260504042050 45 196 0.0 0.0 0.00 0.00 0.00 65 1015.5
20260504041545 45 195 0.0 0.0 0.00 0.00 0.00 65 1015.5
20260504041045 45 195 0.0 0.0 0.00 0.00 0.00 64 1015.5
20260504040546 45 195 0.0 0.0 0.00 0.00 0.00 64 1015.4
20260504040043 45 195 0.0 0.0 0.00 0.00 0.00 63 1015.4
20260504035544 46 195 0.0 0.0 0.00 0.00 0.00 63 1015.3
20260504035043 46 196 0.0 0.0 0.00 0.00 0.00 63 1015.2
20260504034547 46 195 0.0 0.0 0.00 0.00 0.00 61 1015.3
20260504034042 47 195 0.0 0.0 0.00 0.00 0.00 61 1015.3
20260504033542 47 195 0.0 0.0 0.00 0.00 0.00 60 1015.2
20260504033042 47 195 0.0 0.0 0.00 0.00 0.00 60 1015.3
20260504032542 47 195 0.0 0.0 0.00 0.00 0.00 60 1015.2
20260504032042 48 195 0.0 0.0 0.00 0.00 0.00 59 1015.2
20260504031549 48 195 0.0 0.0 0.00 0.00 0.00 58 1015.1
20260504031041 48 195 0.0 0.0 0.00 0.00 0.00 57 1015.3
20260504030541 49 195 0.0 0.0 0.00 0.00 0.00 56 1015.1
20260504030100 49 195 0.0 0.0 0.00 0.00 0.00 56 1015.1
20260504025541 50 195 0.0 0.0 0.00 0.00 0.00 54 1015.1
20260504025041 50 195 0.0 0.0 0.00 0.00 0.00 53 1015.1
20260504024541 50 195 0.0 0.0 0.00 0.00 0.00 53 1015.3
20260504024041 50 195 0.0 3.0 0.00 0.00 0.00 53 1015.1
20260504023540 50 196 0.0 3.0 0.00 0.00 0.00 53 1015.0
20260504023042 50 195 0.0 1.0 0.00 0.00 0.00 53 1015.2
20260504022542 50 195 0.0 1.0 0.00 0.00 0.00 54 1015.2
20260504022040 50 199 0.0 0.0 0.00 0.00 0.00 54 1015.2
20260504021545 50 199 0.0 0.0 0.00 0.00 0.00 54 1015.3
20260504021039 49 199 0.0 0.0 0.00 0.00 0.00 55 1015.2
20260504020542 50 199 0.0 0.0 0.00 0.00 0.00 54 1015.2
20260504020040 50 199 0.0 0.0 0.00 0.00 0.00 53 1015.1
20260504015540 51 199 0.0 0.0 0.00 0.00 0.00 53 1015.1
20260504015040 50 199 0.0 0.0 0.00 0.00 0.00 52 1015.1
20260504014540 50 200 0.0 0.0 0.00 0.00 0.00 53 1015.2
20260504014039 51 200 0.0 0.0 0.00 0.00 0.00 52 1015.1
20260504013540 51 200 0.0 0.0 0.00 0.00 0.00 52 1015.0
20260504013041 51 200 0.0 0.0 0.00 0.00 0.00 52 1015.0
20260504012538 51 200 0.0 0.0 0.00 0.00 0.00 51 1014.8
20260504012038 51 200 0.0 0.0 0.00 0.00 0.00 52 1014.9
20260504011538 52 200 0.0 0.0 0.00 0.00 0.00 51 1014.8
20260504011042 52 200 0.0 0.0 0.00 0.00 0.00 51 1014.7
20260504010640 52 200 0.0 0.0 0.00 0.00 0.00 51 1014.6
20260504010045 52 200 0.0 0.0 0.00 0.00 0.00 51 1014.5
20260504005537 52 200 0.0 0.0 0.00 0.00 0.00 50 1014.5
20260504005038 52 200 0.0 0.0 0.00 0.00 0.00 49 1014.6
20260504004543 52 200 0.0 0.0 0.00 0.00 0.00 49 1014.4
20260504004038 52 200 0.0 0.0 0.00 0.00 0.00 49 1014.4
20260504003536 52 200 0.0 0.0 0.00 0.00 0.00 49 1014.3
20260504003036 52 200 0.0 0.0 0.00 0.00 0.00 49 1014.3
20260504002536 52 200 0.0 0.0 0.00 0.00 0.00 49 1014.3
20260504002036 53 200 0.0 0.0 0.00 0.00 0.00 48 1014.2
20260504001539 53 200 0.0 0.0 0.00 0.00 0.00 46 1014.0
20260504001036 54 200 0.0 0.0 0.00 0.00 0.00 46 1014.0
20260504000535 54 200 0.0 0.0 0.00 0.00 0.00 45 1013.9
20260504000037 55 194 0.0 0.0 0.00 0.00 0.00 44 1013.7
20260503235536 55 194 0.0 0.0 0.00 0.00 0.00 43 1013.7
20260503235036 56 194 0.0 0.0 0.00 0.00 0.00 42 1013.7
20260503234539 56 194 0.0 1.0 0.00 0.00 0.00 42 1013.7
20260503234038 57 192 0.0 4.0 0.00 0.00 0.00 40 1013.7
20260503233534 57 196 0.0 3.0 0.00 0.00 0.00 41 1013.7
20260503233035 57 190 0.0 3.0 0.00 0.00 0.00 39 1013.6
20260503232537 57 198 0.0 2.0 0.00 0.00 0.00 39 1013.6
20260503232035 58 176 0.0 3.0 0.00 0.00 0.00 40 1013.7
20260503231535 58 196 0.0 3.0 0.00 0.00 0.00 38 1013.6
20260503231038 58 201 0.0 2.0 0.00 0.00 0.00 38 1013.6
20260503230536 59 198 0.0 6.0 0.00 0.00 0.00 38 1013.5
20260503230045 59 190 0.0 6.0 0.00 0.00 0.00 37 1013.3
20260503225534 59 191 0.0 2.0 0.00 0.00 0.00 37 1013.4
20260503225034 60 197 0.0 5.0 0.00 0.00 0.00 35 1013.5
20260503224533 61 162 0.0 6.0 0.00 0.00 0.00 35 1013.5
20260503224036 62 193 1.0 6.0 0.00 0.00 0.00 33 1013.4
20260503223533 63 187 0.0 3.0 0.00 0.00 0.00 33 1013.4
20260503223033 62 176 0.0 5.0 0.00 0.00 0.00 33 1013.4
20260503222532 63 178 0.0 5.0 0.00 0.00 0.00 32 1013.4
20260503222032 63 153 0.0 5.0 0.00 0.00 0.00 32 1013.4
20260503221535 63 203 0.0 4.0 0.00 0.00 0.00 34 1013.4
20260503221033 62 182 0.0 6.0 0.00 0.00 0.00 33 1013.2
20260503220532 62 190 0.0 6.0 0.00 0.00 0.00 33 1013.2
20260503220037 62 163 0.0 4.0 0.00 0.00 0.00 33 1013.2
20260503215532 62 221 1.0 5.0 0.00 0.00 0.00 32 1013.3
20260503215031 63 179 0.0 5.0 0.00 0.00 0.00 32 1013.2
20260503214545 62 196 0.0 3.0 0.00 0.00 0.00 32 1013.1
20260503214029 62 182 0.0 5.0 0.00 0.00 0.00 33 1013.2
20260503213529 62 200 2.0 5.0 0.00 0.00 0.00 32 1013.2
20260503213033 62 163 0.0 5.0 0.00 0.00 0.00 32 1013.2
20260503212528 62 177 1.0 5.0 0.00 0.00 0.00 31 1013.3
20260503212028 62 190 0.0 6.0 0.00 0.00 0.00 32 1013.1
20260503211528 61 215 1.0 6.0 0.00 0.00 0.00 33 1013.2
20260503211028 61 173 0.0 5.0 0.00 0.00 0.00 34 1013.2
20260503210528 61 159 1.0 6.0 0.00 0.00 0.00 32 1013.2
20260503210027 62 141 1.0 7.0 0.00 0.00 0.00 32 1013.2
20260503205527 62 198 1.0 7.0 0.00 0.00 0.00 33 1013.3
20260503205028 61 133 0.0 6.0 0.00 0.00 0.00 34 1013.5
20260503204529 61 191 0.0 5.0 0.00 0.00 0.00 34 1013.5
20260503204024 60 168 0.0 3.0 0.00 0.00 0.00 36 1013.3
20260503203526 60 198 0.0 3.0 0.00 0.00 0.00 35 1013.5
20260503203025 60 182 0.0 4.0 0.00 0.00 0.00 35 1013.6
20260503202523 59 183 1.0 5.0 0.00 0.00 0.00 35 1013.5
20260503202020 59 155 1.0 8.0 0.00 0.00 0.00 36 1013.5
20260503201520 58 181 1.0 8.0 0.00 0.00 0.00 36 1013.5
20260503201020 58 184 1.0 8.0 0.00 0.00 0.00 36 1013.6
20260503200519 58 169 1.0 8.0 0.00 0.00 0.00 35 1013.7
20260503200019 58 96 2.0 6.0 0.00 0.00 0.00 36 1013.6
20260503195517 58 174 1.0 4.0 0.00 0.00 0.00 36 1013.8
20260503195018 58 106 1.0 5.0 0.00 0.00 0.00 37 1013.7
20260503194520 58 233 2.0 5.0 0.00 0.00 0.00 37 1013.9
20260503194018 58 184 0.0 5.0 0.00 0.00 0.00 37 1013.9
20260503193515 58 154 0.0 6.0 0.00 0.00 0.00 37 1014.0
20260503193015 58 193 1.0 6.0 0.00 0.00 0.00 36 1014.0
20260503192514 57 205 0.0 7.0 0.00 0.00 0.00 39 1013.9
20260503192013 56 187 2.0 10.0 0.00 0.00 0.00 37 1014.0
20260503191513 56 184 1.0 10.0 0.00 0.00 0.00 37 1014.0
20260503191013 56 186 0.0 5.0 0.00 0.00 0.00 38 1014.2
20260503190513 56 65 1.0 8.0 0.00 0.00 0.00 38 1014.1
20260503190016 57 133 0.0 8.0 0.00 0.00 0.00 37 1014.2